GW7220 Weather Reports


Display with metric or nautical units.
time (UTC)temp
F
wind
direction
speed
MPH
gust
MPH
rain 1hr
in
rain 24hr
in
rain mn
in
humidity
%
barometer
mb
20260510163835 76 350 2.0 3.0 0.00 0.00 0.00 51 1010.6
20260510163332 76 322 2.0 3.0 0.00 0.00 0.00 51 1010.6
20260510162826 75 142 1.0 2.0 0.00 0.00 0.00 56 1010.7
20260510162323 74 190 1.0 2.0 0.00 0.00 0.00 53 1010.8
20260510161819 74 18 0.0 7.0 0.00 0.00 0.00 52 1010.9
20260510161315 73 356 1.0 3.0 0.00 0.00 0.00 57 1010.6
20260510160813 73 15 1.0 6.0 0.00 0.00 0.00 58 1010.9
20260510160309 73 354 2.0 3.0 0.00 0.00 0.00 59 1010.7
20260510155808 73 301 0.0 3.0 0.00 0.00 0.00 60 1010.5
20260510155306 73 114 2.0 4.0 0.00 0.00 0.00 60 1010.7
20260510154801 73 348 1.0 2.0 0.00 0.00 0.00 57 1010.9
20260510154257 73 184 1.0 3.0 0.00 0.00 0.00 57 1010.9
20260510153752 73 197 2.0 4.0 0.00 0.00 0.00 58 1010.9
20260510153248 73 35 0.0 6.0 0.00 0.00 0.00 60 1011.2
20260510152745 73 230 1.0 2.0 0.00 0.00 0.00 61 1010.8
20260510152242 72 186 1.0 3.0 0.00 0.00 0.00 61 1010.9
20260510151738 71 147 2.0 2.0 0.00 0.00 0.00 60 1010.9
20260510151237 71 345 3.0 6.0 0.00 0.00 0.00 60 1010.9
20260510150732 70 192 1.0 3.0 0.00 0.00 0.00 65 1011.1
20260510150228 70 340 2.0 4.0 0.00 0.00 0.00 65 1011.2
20260510145724 69 45 0.0 3.0 0.00 0.00 0.00 67 1011.1
20260510145221 69 1 3.0 6.0 0.00 0.00 0.00 67 1011.1
20260510144716 69 332 1.0 3.0 0.00 0.00 0.00 68 1011.2
20260510144214 69 4 2.0 3.0 0.00 0.00 0.00 68 1011.2
20260510143708 68 141 1.0 2.0 0.00 0.00 0.00 69 1010.9
20260510143205 68 351 1.0 4.0 0.00 0.00 0.00 71 1011.0
20260510142701 68 336 2.0 4.0 0.00 0.00 0.00 70 1011.0
20260510142158 67 60 0.0 2.0 0.00 0.00 0.00 75 1010.9
20260510141655 67 31 0.0 3.0 0.00 0.00 0.00 73 1011.1
20260510141154 66 350 1.0 3.0 0.00 0.00 0.00 76 1011.0
20260510140650 65 358 2.0 3.0 0.00 0.00 0.00 74 1011.2
20260510140149 65 15 1.0 2.0 0.00 0.00 0.00 77 1011.2
20260510135644 65 40 0.0 1.0 0.00 0.00 0.00 77 1010.9
20260510135140 65 115 1.0 2.0 0.00 0.00 0.00 75 1010.8
20260510134638 63 45 0.0 2.0 0.00 0.00 0.00 82 1011.0
20260510134135 62 7 1.0 2.0 0.00 0.00 0.00 82 1010.7
20260510133631 62 1 2.0 3.0 0.00 0.00 0.00 84 1011.0
20260510133126 61 56 0.0 1.0 0.00 0.00 0.00 86 1011.0
20260510132624 61 17 1.0 1.0 0.00 0.00 0.00 88 1010.7
20260510132121 61 29 0.0 0.0 0.00 0.00 0.00 92 1010.9
20260510131618 59 36 0.0 1.0 0.00 0.00 0.00 95 1010.9
20260510131115 58 32 1.0 1.0 0.00 0.00 0.00 96 1010.8
20260510130612 57 76 0.0 1.0 0.00 0.00 0.00 97 1010.9
20260510130109 58 165 1.0 2.0 0.00 0.00 0.00 98 1010.9
20260510125605 56 38 0.0 0.0 0.00 0.00 0.00 98 1011.1
20260510125102 56 22 0.0 0.0 0.00 0.00 0.00 98 1011.0
20260510124558 56 41 0.0 0.0 0.00 0.00 0.00 99 1010.9
20260510124055 55 61 0.0 1.0 0.00 0.00 0.00 99 1011.1
20260510123550 55 162 1.0 2.0 0.00 0.00 0.00 99 1010.9
20260510123047 54 9 0.0 1.0 0.00 0.00 0.00 99 1010.7
20260510122543 53 15 0.0 1.0 0.00 0.00 0.00 99 1010.8
20260510122039 53 21 0.0 0.0 0.00 0.00 0.00 99 1010.4
20260510121536 53 22 0.0 0.0 0.00 0.00 0.00 99 1010.7
20260510121034 53 28 0.0 0.0 0.00 0.00 0.00 99 1010.7
20260510120531 53 26 0.0 1.0 0.00 0.00 0.00 99 1010.4
20260510120027 52 58 0.0 2.0 0.00 0.00 0.00 99 1010.1
20260510115523 52 21 0.0 2.0 0.00 0.00 0.00 99 1010.5
20260510115020 52 36 0.0 1.0 0.00 0.00 0.00 99 1010.5
20260510114516 52 34 0.0 0.0 0.00 0.00 0.00 99 1010.3
20260510114012 52 37 0.0 1.0 0.00 0.00 0.00 99 1010.4
20260510113508 52 344 1.0 2.0 0.00 0.00 0.00 99 1010.2
20260510113006 52 27 1.0 1.0 0.00 0.00 0.00 99 1010.2
20260510112502 52 29 0.0 1.0 0.00 0.00 0.00 99 1010.1
20260510111958 52 55 0.0 1.0 0.00 0.00 0.00 99 1010.1
20260510111455 51 39 0.0 0.0 0.00 0.00 0.00 99 1010.2
20260510110951 51 23 0.0 1.0 0.00 0.00 0.00 99 1010.5
20260510110448 51 11 0.0 2.0 0.00 0.00 0.00 99 1010.1
20260510105943 51 25 0.0 0.0 0.00 0.00 0.00 99 1010.2
20260510105439 51 15 1.0 1.0 0.00 0.00 0.00 99 1010.1
20260510104934 51 349 1.0 1.0 0.00 0.00 0.00 99 1009.9
20260510104431 51 26 0.0 0.0 0.00 0.00 0.00 99 1009.8
20260510103927 51 34 0.0 0.0 0.00 0.00 0.00 99 1009.4
20260510103425 51 44 0.0 0.0 0.00 0.00 0.00 99 1009.8
20260510102920 51 28 0.0 0.0 0.00 0.00 0.00 99 1009.4
20260510102416 51 23 0.0 0.0 0.00 0.00 0.00 99 1009.7
20260510101913 51 23 0.0 0.0 0.00 0.00 0.00 99 1009.5
20260510101411 51 23 0.0 0.0 0.00 0.00 0.00 99 1009.6
20260510100908 51 26 0.0 0.0 0.00 0.00 0.00 99 1009.6
20260510100406 51 20 0.0 0.0 0.00 0.00 0.00 99 1009.5
20260510095902 50 355 1.0 1.0 0.00 0.00 0.00 99 1009.6
20260510095356 50 356 0.0 1.0 0.00 0.00 0.00 99 1009.3
20260510094856 50 40 0.0 0.0 0.00 0.00 0.00 99 1009.4
20260510094351 50 20 0.0 0.0 0.00 0.00 0.00 99 1009.3
20260510093848 50 30 0.0 0.0 0.00 0.00 0.00 99 1009.3
20260510093343 50 17 0.0 0.0 0.00 0.00 0.00 98 1009.5
20260510092840 50 29 0.0 0.0 0.00 0.00 0.00 99 1009.4
20260510092336 50 35 0.0 0.0 0.00 0.00 0.00 98 1009.6
20260510091832 50 22 0.0 0.0 0.00 0.00 0.00 98 1009.4
20260510091330 50 50 0.0 0.0 0.00 0.00 0.00 98 1009.5
20260510090826 50 32 0.0 0.0 0.00 0.00 0.00 98 1009.4
20260510090323 50 33 0.0 0.0 0.00 0.00 0.00 98 1009.4
20260510085818 50 30 0.0 2.0 0.00 0.00 0.00 98 1009.6
20260510085318 49 107 1.0 3.0 0.00 0.00 0.00 98 1009.3
20260510084814 49 328 2.0 3.0 0.00 0.00 0.00 98 1009.8
20260510084311 49 117 2.0 4.0 0.00 0.00 0.00 98 1009.3
20260510083808 49 69 1.0 2.0 0.00 0.00 0.00 98 1009.1
20260510083305 49 353 4.0 6.0 0.00 0.00 0.00 98 1009.6
20260510082800 49 44 3.0 7.0 0.00 0.00 0.00 98 1009.4
20260510082258 49 32 0.0 0.0 0.00 0.00 0.00 98 1008.9
20260510081756 49 33 0.0 0.0 0.00 0.00 0.00 98 1008.7
20260510081252 49 30 0.0 0.0 0.00 0.00 0.00 98 1008.9
20260510080748 49 30 0.0 0.0 0.00 0.00 0.00 98 1009.0
20260510080244 49 30 0.0 0.0 0.00 0.00 0.00 98 1008.7
20260510075741 49 30 0.0 0.0 0.00 0.00 0.00 98 1008.8
20260510075238 48 18 0.0 0.0 0.00 0.00 0.00 98 1008.7
20260510074735 48 47 0.0 0.0 0.00 0.00 0.00 98 1008.6
20260510074232 48 47 0.0 0.0 0.00 0.00 0.00 98 1008.8
20260510073728 48 74 0.0 0.0 0.00 0.00 0.00 98 1008.7
20260510073224 47 83 0.0 0.0 0.00 0.00 0.00 98 1008.8
20260510072720 47 75 0.0 0.0 0.00 0.00 0.00 98 1008.6
20260510072217 46 25 0.0 0.0 0.00 0.00 0.00 98 1008.9
20260510071714 46 29 0.0 0.0 0.00 0.00 0.00 98 1008.6
20260510071210 46 37 0.0 0.0 0.00 0.00 0.00 98 1008.6
20260510070708 46 37 0.0 0.0 0.00 0.00 0.00 98 1008.5
20260510070205 46 37 0.0 0.0 0.00 0.00 0.00 98 1008.3
20260510065700 46 37 0.0 0.0 0.00 0.00 0.00 98 1008.3
20260510065156 46 37 0.0 0.0 0.00 0.00 0.00 98 1008.2
20260510064653 47 37 0.0 0.0 0.00 0.00 0.00 98 1008.1
20260510064150 47 37 0.0 0.0 0.00 0.00 0.00 98 1008.0
20260510063647 47 37 0.0 0.0 0.00 0.00 0.00 98 1008.0
20260510063144 47 37 0.0 0.0 0.00 0.00 0.00 98 1008.2
20260510062640 47 37 0.0 0.0 0.00 0.00 0.00 98 1008.2
20260510062136 47 37 0.0 0.0 0.00 0.00 0.00 98 1008.1
20260510061631 47 37 0.0 0.0 0.00 0.00 0.00 98 1008.2
20260510061129 46 41 0.0 0.0 0.00 0.00 0.00 98 1008.2
20260510060625 46 41 0.0 0.0 0.00 0.00 0.00 98 1008.2
20260510060122 47 41 0.0 0.0 0.00 0.00 0.00 98 1008.2
20260510055618 47 41 0.0 0.0 0.00 0.00 0.00 98 1008.4
20260510055116 47 41 0.0 0.0 0.00 0.00 0.00 98 1008.4
20260510054611 47 41 0.0 0.0 0.00 0.00 0.00 98 1008.4
20260510054107 48 41 0.0 0.0 0.00 0.00 0.00 98 1008.3
20260510053606 48 41 0.0 0.0 0.00 0.00 0.00 98 1008.4
20260510053104 48 41 0.0 0.0 0.00 0.00 0.00 98 1008.4
20260510052559 48 41 0.0 0.0 0.00 0.00 0.00 98 1008.6
20260510052056 48 41 0.0 0.0 0.00 0.00 0.00 98 1008.7
20260510051551 47 41 0.0 0.0 0.00 0.00 0.00 98 1008.6
20260510051049 47 41 0.0 0.0 0.00 0.00 0.00 97 1008.7
20260510050546 48 41 0.0 0.0 0.00 0.00 0.00 97 1008.7
20260510050043 48 41 0.0 0.0 0.00 0.00 0.00 97 1008.7
20260510045540 48 41 0.0 0.0 0.00 0.00 0.00 97 1008.7
20260510045036 48 41 0.0 0.0 0.00 0.00 0.00 97 1008.7
20260510044533 49 41 0.0 0.0 0.00 0.00 0.00 97 1008.7
20260510044030 49 41 0.0 0.0 0.00 0.00 0.00 97 1008.7
20260510043526 49 41 0.0 0.0 0.00 0.00 0.00 98 1009.0
20260510043021 49 41 0.0 0.0 0.00 0.00 0.00 97 1008.6
20260510042516 49 41 0.0 0.0 0.00 0.00 0.00 97 1008.8
20260510042015 49 41 0.0 0.0 0.00 0.00 0.00 97 1008.9
20260510041514 50 41 0.0 0.0 0.00 0.00 0.00 97 1008.8
20260510041011 50 41 0.0 0.0 0.00 0.00 0.00 97 1009.1
20260510040507 50 41 0.0 0.0 0.00 0.00 0.00 97 1009.1
20260510040003 50 41 0.0 0.0 0.00 0.06 0.06 97 1009.0
20260510035500 50 41 0.0 0.0 0.00 0.06 0.06 97 1009.1
20260510034959 50 41 0.0 0.0 0.00 0.06 0.06 97 1009.0
20260510034458 50 41 0.0 0.0 0.00 0.06 0.06 97 1009.0
20260510033954 50 41 0.0 0.0 0.00 0.06 0.06 97 1008.9
20260510033450 50 41 0.0 0.0 0.00 0.06 0.06 97 1008.5
20260510032948 50 41 0.0 0.0 0.00 0.06 0.06 97 1008.5
20260510032445 49 41 0.0 0.0 0.00 0.06 0.06 97 1008.9
20260510031945 49 41 0.0 0.0 0.00 0.06 0.06 97 1008.5
20260510031441 49 41 0.0 0.0 0.00 0.06 0.06 97 1008.5
20260510030936 50 41 0.0 0.0 0.00 0.06 0.06 97 1008.5
20260510030432 50 41 0.0 0.0 0.00 0.06 0.06 97 1008.6
20260510025930 50 41 0.0 0.0 0.00 0.06 0.06 97 1008.4
20260510025427 50 41 0.0 0.0 0.00 0.06 0.06 97 1008.5
20260510024924 51 41 0.0 0.0 0.00 0.06 0.06 97 1008.4
20260510024420 51 41 0.0 0.0 0.00 0.06 0.06 96 1008.3
20260510023916 51 41 0.0 0.0 0.00 0.06 0.06 97 1008.4
20260510023413 52 41 0.0 0.0 0.00 0.06 0.06 97 1008.6
20260510022911 52 41 0.0 0.0 0.00 0.06 0.06 97 1008.5
20260510022409 51 41 0.0 0.0 0.00 0.06 0.06 97 1008.2
20260510021908 51 41 0.0 0.0 0.00 0.06 0.06 97 1008.7
20260510021407 50 41 0.0 0.0 0.00 0.06 0.06 96 1008.3
20260510020903 50 41 0.0 0.0 0.00 0.06 0.06 96 1008.5
20260510020358 50 41 0.0 0.0 0.00 0.06 0.06 96 1008.2
20260510015854 50 41 0.0 0.0 0.00 0.06 0.06 96 1008.2
20260510015350 50 41 0.0 0.0 0.00 0.06 0.06 96 1008.4
20260510014845 51 41 0.0 0.0 0.00 0.06 0.06 96 1008.3
20260510014343 51 41 0.0 0.0 0.00 0.06 0.06 96 1008.3
20260510013839 51 41 0.0 0.0 0.00 0.06 0.06 96 1008.3
20260510013334 51 41 0.0 0.0 0.00 0.06 0.06 96 1008.4
20260510012830 52 41 0.0 0.0 0.00 0.06 0.06 96 1008.4
20260510012329 51 41 0.0 0.0 0.00 0.06 0.06 96 1008.1
20260510011824 51 41 0.0 0.0 0.00 0.06 0.06 95 1008.2
20260510011320 51 41 0.0 0.0 0.00 0.06 0.06 95 1008.3
20260510010817 52 41 0.0 0.0 0.00 0.06 0.06 95 1008.0
20260510010314 52 41 0.0 0.0 0.00 0.06 0.06 95 1008.2
20260510005811 53 41 0.0 0.0 0.00 0.06 0.06 95 1008.2
20260510005307 53 41 0.0 0.0 0.00 0.06 0.06 95 1008.0
20260510004805 53 41 0.0 0.0 0.00 0.06 0.06 95 1007.9
20260510004302 53 42 0.0 0.0 0.00 0.06 0.06 94 1008.0
20260510003759 53 42 0.0 0.0 0.00 0.06 0.06 94 1007.9
20260510003256 54 42 0.0 0.0 0.00 0.06 0.06 94 1008.2
20260510002755 54 42 0.0 0.0 0.00 0.06 0.06 94 1007.9
20260510002253 54 42 0.0 0.0 0.00 0.06 0.06 94 1007.8
20260510001749 54 42 0.0 0.0 0.00 0.06 0.06 94 1007.9
20260510001247 54 42 0.0 0.0 0.00 0.06 0.06 94 1008.1
20260510000743 55 42 0.0 0.0 0.00 0.06 0.06 94 1007.8
20260510000241 55 42 0.0 0.0 0.00 0.06 0.06 93 1007.8
20260509235737 55 42 0.0 0.0 0.00 0.06 0.06 92 1007.8
20260509235234 55 42 0.0 0.0 0.00 0.06 0.06 92 1008.0
20260509234730 55 42 0.0 0.0 0.00 0.06 0.06 92 1007.8
20260509234227 56 34 0.0 0.0 0.00 0.06 0.06 91 1008.0
20260509233725 56 34 0.0 0.0 0.00 0.06 0.06 91 1007.8
20260509233222 56 34 0.0 0.0 0.00 0.06 0.06 90 1007.9
20260509232718 57 34 0.0 0.0 0.00 0.06 0.06 89 1007.8
20260509232216 57 34 0.0 0.0 0.00 0.06 0.06 89 1007.7
20260509231712 57 34 0.0 0.0 0.00 0.06 0.06 89 1007.4
20260509231209 58 33 0.0 0.0 0.00 0.06 0.06 88 1007.6
20260509230707 58 29 0.0 1.0 0.00 0.06 0.06 88 1007.6
20260509230203 58 23 0.0 1.0 0.00 0.06 0.06 88 1007.8
20260509225659 58 51 0.0 0.0 0.00 0.06 0.06 89 1007.7
20260509225154 58 35 0.0 0.0 0.00 0.06 0.06 89 1007.8
20260509224650 58 24 0.0 0.0 0.00 0.06 0.06 90 1007.8
20260509224148 58 28 0.0 0.0 0.00 0.06 0.06 90 1007.9
20260509223644 58 38 0.0 0.0 0.00 0.06 0.06 90 1007.7
20260509223141 57 32 0.0 0.0 0.00 0.06 0.06 91 1007.7
20260509222639 57 62 0.0 1.0 0.00 0.06 0.06 91 1007.7
20260509222134 57 39 0.0 0.0 0.00 0.06 0.06 91 1007.6
20260509221630 57 38 0.0 0.0 0.00 0.06 0.06 91 1007.7
20260509221126 57 47 0.0 0.0 0.00 0.06 0.06 90 1007.8
20260509220622 57 48 0.0 0.0 0.00 0.06 0.06 91 1007.6
20260509220118 57 50 0.0 0.0 0.00 0.06 0.06 91 1007.9
20260509215614 56 24 0.0 1.0 0.00 0.06 0.06 90 1007.8
20260509215111 56 43 0.0 0.0 0.00 0.06 0.06 90 1007.7
20260509214608 56 43 0.0 0.0 0.00 0.06 0.06 89 1007.9
20260509214105 56 43 0.0 0.0 0.00 0.06 0.06 89 1007.9
20260509213601 56 43 0.0 0.0 0.00 0.06 0.06 88 1008.0
20260509213058 57 43 0.0 0.0 0.00 0.06 0.06 88 1008.1
20260509212555 57 23 0.0 1.0 0.00 0.06 0.06 88 1008.2
20260509212052 57 48 0.0 0.0 0.00 0.06 0.06 90 1008.2
20260509211548 57 58 0.0 1.0 0.00 0.06 0.06 89 1008.1
20260509211044 56 28 0.0 0.0 0.00 0.06 0.06 90 1008.0
20260509210542 56 29 0.0 1.0 0.00 0.06 0.06 89 1007.9
20260509210038 56 23 0.0 2.0 0.35 0.06 0.06 88 1008.0
20260509205538 57 28 2.0 2.0 0.35 0.06 0.06 86 1008.1
20260509205033 57 30 0.0 1.0 0.00 0.00 0.00 85 1008.1
20260509204530 57 7 0.0 2.0 0.00 0.00 0.00 84 1008.2
20260509204026 57 355 1.0 2.0 0.00 0.00 0.00 83 1007.7
20260509203522 57 25 1.0 1.0 0.00 0.00 0.00 83 1007.8
20260509203021 58 9 2.0 3.0 0.00 0.00 0.00 82 1007.7
20260509202515 58 16 1.0 2.0 0.00 0.00 0.00 83 1008.1
20260509202010 58 356 1.0 3.0 0.00 0.00 0.00 81 1007.9
20260509201506 58 40 0.0 2.0 0.00 0.00 0.00 83 1007.9
20260509201004 58 10 2.0 3.0 0.00 0.00 0.00 84 1007.7
20260509200503 57 22 1.0 2.0 0.00 0.00 0.00 84 1007.6
20260509200000 58 342 2.0 6.0 0.00 0.00 0.00 83 1008.1
20260509195456 58 335 5.0 6.0 0.00 0.00 0.00 82 1008.1
20260509194955 58 335 4.0 8.0 0.00 0.00 0.00 80 1008.2
20260509194451 58 20 1.0 4.0 0.00 0.00 0.00 80 1008.0
20260509193948 58 36 2.0 4.0 0.00 0.00 0.00 80 1008.2
20260509193448 58 41 2.0 4.0 0.00 0.00 0.00 81 1008.3
20260509192944 58 33 1.0 2.0 0.00 0.00 0.00 81 1008.1
20260509192442 58 43 2.0 3.0 0.00 0.00 0.00 82 1008.3
20260509191937 58 338 3.0 3.0 0.00 0.00 0.00 83 1008.3
20260509191432 58 357 1.0 6.0 0.00 0.00 0.00 83 1008.6
20260509190928 58 345 1.0 3.0 0.00 0.00 0.00 83 1008.8
20260509190426 58 2 2.0 3.0 0.00 0.00 0.00 83 1008.7
20260509185923 58 8 1.0 4.0 0.00 0.00 0.00 82 1008.7
20260509185420 58 6 3.0 6.0 0.00 0.00 0.00 80 1008.7
20260509184917 59 315 3.0 6.0 0.00 0.00 0.00 79 1008.7
20260509184414 59 302 3.0 4.0 0.00 0.00 0.00 80 1008.8
20260509183911 59 341 4.0 6.0 0.00 0.00 0.00 80 1008.6
20260509183405 59 329 1.0 7.0 0.00 0.00 0.00 79 1008.8
20260509182902 59 7 1.0 4.0 0.00 0.00 0.00 79 1008.7
20260509182359 59 336 2.0 6.0 0.00 0.00 0.00 78 1009.0
20260509181856 59 321 3.0 4.0 0.00 0.00 0.00 76 1009.0
20260509181353 60 21 2.0 7.0 0.00 0.00 0.00 76 1008.8
20260509180851 60 7 2.0 4.0 0.00 0.00 0.00 74 1009.0
20260509180346 60 349 2.0 6.0 0.00 0.00 0.00 74 1009.0
20260509175843 60 336 2.0 4.0 0.00 0.00 0.00 72 1009.0
20260509175340 60 18 2.0 4.0 0.00 0.00 0.00 72 1009.0
20260509174835 60 315 1.0 2.0 0.00 0.00 0.00 71 1008.9
20260509174332 60 354 1.0 1.0 0.00 0.00 0.00 70 1009.0
20260509173827 61 336 3.0 4.0 0.00 0.00 0.00 70 1008.9
20260509173323 61 359 1.0 2.0 0.00 0.00 0.00 70 1008.4
20260509172820 61 52 0.0 3.0 0.00 0.00 0.00 69 1008.8
20260509172316 61 6 2.0 2.0 0.00 0.00 0.00 69 1009.0
20260509171812 61 52 0.0 3.0 0.00 0.00 0.00 69 1008.7
20260509171308 61 359 5.0 7.0 0.00 0.00 0.00 69 1008.9
20260509170805 62 342 2.0 4.0 0.00 0.00 0.00 70 1008.9
20260509170300 62 17 1.0 2.0 0.00 0.00 0.00 70 1009.2
20260509165800 62 327 6.0 7.0 0.00 0.00 0.00 69 1009.1
20260509165255 62 330 2.0 4.0 0.00 0.00 0.00 71 1008.8
20260509164751 61 12 2.0 4.0 0.00 0.00 0.00 72 1008.9
20260509164247 62 339 3.0 4.0 0.00 0.00 0.00 71 1009.0